User: anonymous   Login
Location: Newark
(22.3060°N, 114.2134°E)
Time: 05:06:52
(UTC+00:00)
Language:

Transit 2A Rocket - Orbit

View from above orbital plane
View from above orbital plane
View from above satellite
View from above satellite

Ground track
Ground track

The orbit data is extracted from the following two-line orbital elements,

1 00047U 60007C   21206.91317853  .00000049  00000-0  35867-4 0  9998
2 00047  66.6653 156.1696 0226702   6.1310 354.2482 14.42161823192854
Epoch (UTC): 25 July 2021 21:54:58
Eccentricity: 0.0226702
inclination: 66.6653°
perigee height: 590 km
apogee height: 913 km
right ascension of ascending node: 156.1696°
argument of perigee: 6.1310°
revolutions per day: 14.42161823
mean anomaly at epoch: 354.2482°
orbit number at epoch: 19285

The dashed part of the orbit path shows where the satellite is in the earth's shadow,  

DLR